Weather History for KAKO - May, 2012

Change the Weather History Date:

Tuesday, May 29, 2012

  Actual Average Record
Temperature  
Mean Temperature 60 °F 61 °F  
Max Temperature 80 °F 75 °F 96 °F (1989)
Min Temperature 39 °F 48 °F 29 °F (1947)
Degree Days  
Heating Degree Days 5    
Month to date heating degree days 177  
Cooling Degree Days 0    
Month to date cooling degree days 46  
Growing Degree Days 9 (Base 50)    
Moisture  
Dew Point 29 °F    
Average Humidity 41    
Maximum Humidity 70    
Minimum Humidity 12    
Precipitation  
Precipitation 0.00 in 0.10 in 1.68 in (1938)
Month to date precipitation 0.82 2.71  
Year to date precipitation 3.07 5.97  
Sea Level Pressure  
Sea Level Pressure 29.96 in    
Wind  
Wind Speed 6 mph (NE)    
Max Wind Speed 16 mph    
Max Gust Speed 28 mph    
Visibility 10 miles    
Events      
T = Trace of Precipitation, MM = Missing Value Source: NWS Daily Summary

Daily Weather History Graph

Daily Weather History Graph

Search for Another Location

Airport or City:

Trip Planner

Search our weather history database for the weather conditions in past years. The results will help you decide how hot, cold, wet, or windy it might be!

Date:

Astronomy

May. 29, 2012 Rise Set
Actual Time 5:26 AM MDT 8:14 PM MDT
Civil Twilight 4:54 AM MDT 8:46 PM MDT
Nautical Twilight 4:14 AM MDT 9:26 PM MDT
Astronomical Twilight 3:28 AM MDT 10:13 PM MDT
Moon 1:47 PM MDT (5/29) 1:21 AM MDT (5/29)
Length of Visible Light 15h 51m
Length of Day
14h 47m
First Quarter, 60% of the Moon is Illuminated
May 29
First Quarter
Jun 4
Full
Jun 11
Last Quarter
Jun 19
New
Jun 26
First Quarter

Hourly Weather History & Observations

Time (MDT) Temp. Windchill Dew Point Humidity Pressure Visibility Wind Dir Wind Speed Gust Speed Precip Events Conditions
12:53 AM 57.9 °F - 24.1 °F 27% 29.93 in 10.0 mi Calm Calm - N/A   Clear
1:53 AM 50.0 °F - 28.0 °F 43% 29.96 in 10.0 mi NNE 11.5 mph - N/A   Clear
2:53 AM 45.0 °F 40.1 °F 30.0 °F 56% 29.99 in 10.0 mi NNE 9.2 mph - N/A   Clear
3:53 AM 41.0 °F 34.3 °F 30.9 °F 67% 30.01 in 10.0 mi North 11.5 mph - N/A   Clear
4:53 AM 39.0 °F 32.3 °F 30.9 °F 73% 30.03 in 10.0 mi North 10.4 mph - N/A   Clear
5:53 AM 39.9 °F 33.9 °F 30.9 °F 70% 30.05 in 10.0 mi North 9.2 mph - N/A   Clear
6:53 AM 48.9 °F - 33.1 °F 54% 30.05 in 10.0 mi North 6.9 mph - N/A   Clear
7:53 AM 55.0 °F - 32.0 °F 42% 30.06 in 10.0 mi NNE 11.5 mph - N/A   Clear
8:53 AM 57.9 °F - 30.9 °F 36% 30.07 in 10.0 mi NE 8.1 mph - N/A   Clear
9:53 AM 63.0 °F - 32.0 °F 31% 30.06 in 10.0 mi NNE 5.8 mph - N/A   Clear
10:53 AM 66.0 °F - 32.0 °F 28% 30.03 in 10.0 mi Variable 4.6 mph - N/A   Clear
11:53 AM 68.0 °F - 30.0 °F 24% 30.01 in 10.0 mi Calm Calm - N/A   Clear
12:53 PM 71.1 °F - 28.9 °F 21% 29.96 in 10.0 mi Variable 3.5 mph - N/A   Clear
1:53 PM 75.9 °F - 28.9 °F 18% 29.95 in 10.0 mi South 10.4 mph 17.3 mph N/A   Clear
2:53 PM 77.0 °F - 25.0 °F 15% 29.94 in 10.0 mi Variable 3.5 mph - N/A   Clear
3:53 PM 77.0 °F - 21.9 °F 13% 29.92 in 10.0 mi SW 6.9 mph - N/A   Clear
4:53 PM 79.0 °F - 21.9 °F 12% 29.91 in 10.0 mi WNW 8.1 mph - N/A   Clear
5:53 PM 78.1 °F - 24.1 °F 14% 29.89 in 10.0 mi Calm Calm - N/A   Clear
6:53 PM 77.0 °F - 21.9 °F 13% 29.86 in 10.0 mi Calm Calm - N/A   Clear
7:53 PM 69.1 °F - 28.0 °F 22% 29.87 in 8.0 mi East 5.8 mph - N/A   Clear
8:53 PM 62.1 °F - 33.1 °F 34% 29.89 in 10.0 mi East 9.2 mph - N/A   Clear
9:53 PM 57.9 °F - 33.1 °F 39% 29.90 in 10.0 mi East 9.2 mph - N/A   Clear
10:53 PM 54.0 °F - 34.0 °F 47% 29.91 in 10.0 mi East 9.2 mph - N/A   Clear
11:53 PM 53.1 °F - 34.0 °F 48% 29.91 in 10.0 mi East 10.4 mph - N/A   Clear